EDT,Max TemperatureF,Mean TemperatureF,Min TemperatureF,Max Dew PointF,MeanDew PointF,Min DewpointF,Max Humidity, Mean Humidity, Min Humidity, Max Sea Level PressureIn, Mean Sea Level PressureIn, Min Sea Level PressureIn, Max VisibilityMiles, Mean VisibilityMiles, Min VisibilityMiles, Max Wind SpeedMPH, Mean Wind SpeedMPH, Max Gust SpeedMPH,PrecipitationIn, CloudCover, Events, WindDirDegrees
2013-8-1,77,70,64,70,66,63,100,94,69,30.02,29.98,29.94,10,8,0,12,2,17,0.27,5,Fog-Rain,225
2013-8-2,78,68,59,64,61,57,100,79,50,30.08,30.04,29.99,10,7,0,12,3,17,0.00,2,Fog,230
2013-8-3,73,68,64,68,64,61,100,90,69,30.07,30.05,30.03,10,8,0,15,3,21,0.24,3,Fog-Rain,226
2013-8-4,73,65,57,64,58,54,100,77,50,30.14,30.09,30.04,10,7,0,12,2,16,0.00,4,Fog,337
2013-8-5,75,63,51,63,55,52,100,78,47,30.17,30.12,30.05,10,9,2,8,1,,0.00,1,,289
2013-8-6,80,68,57,64,60,55,100,78,45,30.08,30.05,30.03,10,8,0,6,0,,0.12,1,Fog-Rain,252
2013-8-7,84,74,64,72,68,64,100,90,62,30.06,30.04,29.98,10,9,0,38,2,44,1.68,2,Rain,193
2013-8-8,80,73,66,75,71,66,100,96,74,30.07,30.03,30.00,10,7,0,10,2,24,0.34,4,Fog-Rain,209
2013-8-9,78,74,69,73,71,70,100,96,78,30.09,30.03,30.00,10,8,1,17,6,24,0.23,6,Rain,225
2013-8-10,78,71,64,70,67,63,100,86,61,30.16,30.13,30.09,10,7,0,8,1,,0.04,3,Fog-Rain,309
2013-8-11,82,73,64,70,65,61,100,81,54,30.17,30.13,30.09,10,9,1,5,0,,0.00,0,,272
2013-8-12,80,72,64,72,68,64,100,84,61,30.13,30.08,29.98,10,7,0,9,1,,0.00,3,Fog,241
2013-8-13,75,68,62,72,66,57,100,94,78,29.99,29.92,29.90,10,8,1,13,5,18,1.10,5,Rain,249
2013-8-14,64,56,48,55,51,46,100,82,55,30.20,30.12,30.01,10,8,0,10,4,,0.00,3,Fog,343
2013-8-15,71,58,46,59,52,46,100,81,49,30.22,30.18,30.13,10,8,0,8,0,,0.00,1,Fog,356
2013-8-16,75,63,51,59,55,52,100,77,47,30.20,30.17,30.14,10,9,0,8,1,,0.00,1,Fog,21
2013-8-17,75,64,53,63,57,52,100,77,47,30.26,30.23,30.20,10,10,5,8,3,,0.00,1,,82
2013-8-18,71,66,60,70,64,57,100,95,73,30.25,30.22,30.19,10,8,1,7,1,,0.15,3,Rain,10
2013-8-19,78,71,64,66,65,63,100,88,61,30.19,30.17,30.14,10,8,0,12,2,,0.00,4,Fog,243
2013-8-20,78,68,57,66,62,57,100,84,54,30.27,30.21,30.18,10,7,0,6,0,,0.00,1,Fog,18
2013-8-21,80,70,60,72,66,61,100,90,70,30.26,30.21,30.14,10,7,2,12,1,22,0.06,1,Rain,233
2013-8-22,78,69,60,72,66,61,100,90,69,30.21,30.15,30.08,10,9,0,10,4,,0.00,3,Fog,233
2013-8-23,75,68,60,66,65,61,100,92,69,30.20,30.11,30.06,10,8,1,12,1,16,0.37,3,Rain,21
2013-8-24,78,66,55,63,59,54,100,78,42,30.35,30.29,30.20,10,9,1,7,0,,0.00,1,,18
2013-8-25,78,66,55,64,60,55,100,80,50,30.44,30.37,30.31,10,9,2,6,0,,0.00,0,,295
2013-8-26,80,68,57,66,61,57,100,80,51,30.35,30.26,30.15,10,9,0,10,1,,0.00,0,Fog,233
2013-8-27,78,72,66,73,69,63,100,90,78,30.15,30.10,30.04,10,7,3,10,3,,0.00,2,,224
2013-8-28,77,73,69,75,73,68,100,99,88,30.06,29.97,29.90,9,4,0,14,5,20,0.92,5,Fog-Rain,228
2013-8-29,82,76,69,73,70,66,100,89,61,30.08,30.04,29.96,10,6,1,8,4,,0.00,4,,5
2013-8-30,84,73,62,73,68,63,100,84,58,30.09,30.02,29.94,10,7,0,9,1,,0.00,1,Fog,230
2013-8-31,80,73,66,72,68,63,100,87,61,29.96,29.93,29.89,10,7,0,12,2,17,0.00,0,Fog,211